Waarnemingen

Advertentie
Mijn weer
Manston, Groot Brittannië (3797): temperatuur & dauwpunt: 12.02.2019 18:00:00 - 18.02.2019 18:00:00 (GMT)Manston, Groot Brittannië (3797): temperatuur -20cm & temperatuur -100cm: 12.02.2019 18:00:00 - 18.02.2019 18:00:00 (GMT)Manston, Groot Brittannië (3797): windsnelheid: 12.02.2019 18:00:00 - 18.02.2019 18:00:00 (GMT)Manston, Groot Brittannië (3797): windrichting: 12.02.2019 18:00:00 - 18.02.2019 18:00:00 (GMT)Manston, Groot Brittannië (3797): luchtdruk: 12.02.2019 18:00:00 - 18.02.2019 18:00:00 (GMT)Manston, Groot Brittannië (3797): zicht: 12.02.2019 18:00:00 - 18.02.2019 18:00:00 (GMT)Manston, Groot Brittannië (3797): Zonneschijnduur: 12.02.2019 18:00:00 - 18.02.2019 18:00:00 (GMT)Manston, Groot Brittannië (3797): neerslag: 12.02.2019 18:00:00 - 18.02.2019 18:00:00 (GMT)
Datum & Tijd tt [°C] td [°C] tt -20cm [°C] tt -100cm [°C] ff [km/u] ff [kn] dd ppp [hPa] vv [km] sd [min] rr [mm]
18.02.2019 18:00:00 8,0 5,8 - - 15 8 WZW 1015,2 15 0 0,2
18.02.2019 17:00:00 8,2 5,9 - - 11 6 WNW 1015,0 16 0 0,0
18.02.2019 16:00:00 10,0 6,1 - - 13 7 W 1014,8 25 0 0,0
18.02.2019 15:00:00 11,7 7,2 - - 18 10 WZW 1014,8 19 18 0,0
18.02.2019 14:00:00 12,0 7,8 - - 21 11 ZW 1015,0 13 30 0,0
18.02.2019 13:00:00 11,2 7,1 - - 31 17 ZW 1015,6 13 42 0,0
18.02.2019 12:00:00 11,8 7,1 - - 24 13 ZZW 1015,7 19 60 0,0
18.02.2019 11:00:00 10,6 8,4 - - 22 12 ZZW 1016,0 12 24 0,0
18.02.2019 10:00:00 9,3 8,8 - - 13 7 ZZW 1016,5 7 0 0,0
18.02.2019 09:00:00 8,5 8,2 6,0 6,2 15 8 Z 1016,8 1,5 0 0,0
18.02.2019 08:00:00 8,1 7,8 - - 13 7 Z 1016,6 1,6 0 0,0
18.02.2019 07:00:00 7,4 7,1 - - 9 5 Z 1016,2 0,3 0 0,0
18.02.2019 06:00:00 6,8 6,5 - - 11 6 ZZO 1016,4 0,7 0 0,0
18.02.2019 05:00:00 5,7 5,1 - - 13 7 ZO 1016,6 4,9 0 0,0
18.02.2019 04:00:00 6,2 5,5 - - 13 7 ZO 1016,7 6 0 0,0
18.02.2019 03:00:00 6,9 5,4 - - 8 4 Z 1016,8 11 0 0,0
18.02.2019 02:00:00 7,4 5,7 - - 9 5 ZZW 1017,3 15 0 0,0
18.02.2019 01:00:00 7,9 6,0 - - 13 7 ZZW 1017,4 17 0 0,0
18.02.2019 00:00:00 6,2 5,0 - - 11 6 ZO 1017,2 12 - 0,0
17.02.2019 23:00:00 6,8 6,1 - - 13 7 ZO 1017,3 9 0 0,0
17.02.2019 22:00:00 6,7 5,7 - - 15 8 OZO 1017,4 10 0 0,0
17.02.2019 21:00:00 7,7 5,7 - - 9 5 ZZO 1017,4 16 0 0,0
17.02.2019 20:00:00 9,4 6,5 - - 13 7 ZZW 1017,2 15 0 0,0
17.02.2019 19:00:00 10,2 7,1 - - 16 9 ZZW 1017,3 17 0 0,0
17.02.2019 18:00:00 9,3 6,6 - - 18 10 Z 1016,9 17 0 0,0
17.02.2019 17:00:00 9,4 5,9 - - 16 9 ZZW 1016,3 17 18 0,0
17.02.2019 16:00:00 10,8 5,9 - - 24 13 ZZW 1016,0 25 54 0,0
17.02.2019 15:00:00 11,6 5,4 - - 21 11 ZZW 1015,8 22 60 0,0
17.02.2019 14:00:00 11,6 4,6 - - 26 14 ZZW 1015,9 21 54 0,0
17.02.2019 13:00:00 12,0 4,7 - - 24 13 ZZW 1016,2 30 60 0,0
17.02.2019 12:00:00 11,7 4,5 - - 29 16 Z 1016,2 24 60 -
17.02.2019 11:00:00 11,1 3,8 - - 28 15 Z 1016,7 18 48 -
17.02.2019 10:00:00 10,4 4,3 - - 18 10 Z 1016,8 21 42 0,0
17.02.2019 09:00:00 8,8 4,1 5,7 6,0 21 11 ZO 1017,0 21 30 0,0
17.02.2019 08:00:00 6,8 4,1 - - 18 10 ZO 1017,6 18 0 0,0
17.02.2019 07:00:00 7,0 4,9 - - 22 12 ZO 1017,6 15 0 0,2
17.02.2019 06:00:00 6,4 5,1 - - 18 10 ZO 1017,8 10 0 0,0
17.02.2019 05:00:00 6,3 5,2 - - 18 10 ZZO 1018,5 7 0 0,0
17.02.2019 04:00:00 5,6 4,9 - - 16 9 ZZO 1019,2 6 0 0,0
17.02.2019 03:00:00 5,1 4,3 - - 15 8 ZZO 1019,9 6 0 0,0
17.02.2019 02:00:00 5,2 4,5 - - 15 8 ZZO 1020,8 5 0 0,0
17.02.2019 01:00:00 6,1 5,6 - - 16 9 ZO 1021,1 2,9 0 0,0
17.02.2019 00:00:00 5,5 5,1 - - 16 9 ZZO 1021,6 4,0 - 0,0
16.02.2019 23:00:00 5,5 5,2 - - 15 8 ZZO 1022,3 0,6 0 0,0
16.02.2019 22:00:00 5,4 5,0 - - 15 8 ZO 1022,8 1,0 0 0,0
16.02.2019 21:00:00 5,7 5,2 - - 9 5 ZZO 1023,3 1,3 0 0,0
16.02.2019 20:00:00 6,7 6,2 - - 9 5 ZO 1023,6 2,3 0 0,0
16.02.2019 19:00:00 7,1 6,1 - - 11 6 ZZO 1023,7 3,8 0 0,0
16.02.2019 18:00:00 8,4 7,1 - - 11 6 ZZO 1023,7 6 0 0,0
16.02.2019 17:00:00 9,8 8,1 - - 11 6 Z 1023,5 9 0 0,0
16.02.2019 16:00:00 11,3 9,0 - - 13 7 ZZW 1023,7 9 0 0,0
16.02.2019 15:00:00 11,6 9,3 - - 16 9 ZZW 1023,9 10 0 0,0
16.02.2019 14:00:00 11,7 9,4 - - 21 11 ZZW 1024,0 12 18 0,0
16.02.2019 13:00:00 12,1 9,3 - - 18 10 Z 1024,6 9 42 0,0
16.02.2019 12:00:00 11,7 8,9 - - 18 10 Z 1025,0 9 48 0,0
16.02.2019 11:00:00 11,3 9,0 - - 15 8 Z 1025,0 9 60 0,0
16.02.2019 10:00:00 9,6 7,9 - - 15 8 Z 1024,7 7 60 0,0
16.02.2019 09:00:00 7,3 6,4 5,0 5,7 13 7 Z 1024,8 4,5 42 0,0
16.02.2019 08:00:00 5,5 4,9 - - 15 8 Z 1024,8 3,5 0 0,0
16.02.2019 07:00:00 5,2 4,2 - - 15 8 ZZW 1024,0 5 0 0,0
16.02.2019 06:00:00 5,6 4,7 - - 15 8 ZZW 1023,6 7 0 0,0
16.02.2019 05:00:00 5,2 4,3 - - 13 7 Z 1023,2 6 0 0,0
16.02.2019 04:00:00 5,0 3,4 - - 11 6 Z 1022,9 7 0 0,0
16.02.2019 03:00:00 5,7 4,4 - - 18 10 ZZO 1023,1 7 0 0,0
16.02.2019 02:00:00 5,6 4,4 - - 18 10 ZZO 1023,8 6 0 0,0
16.02.2019 01:00:00 5,5 4,0 - - 18 10 ZZO 1024,2 6 0 0,0
16.02.2019 00:00:00 5,2 3,7 - - 16 9 Z 1024,6 6 - 0,0
15.02.2019 23:00:00 5,0 3,5 - - 16 9 Z 1024,8 7 0 0,0
15.02.2019 22:00:00 5,2 3,0 - - 13 7 Z 1025,2 9 0 0,0
15.02.2019 21:00:00 5,1 2,4 - - 11 6 ZZW 1025,2 8 0 0,0
15.02.2019 20:00:00 6,6 3,4 - - 15 8 ZZW 1025,6 10 0 0,0
15.02.2019 19:00:00 5,9 2,2 - - 15 8 ZZW 1026,0 11 0 0,0
15.02.2019 18:00:00 6,4 2,0 - - 13 7 Z 1026,1 11 0 0,0
15.02.2019 17:00:00 8,9 2,4 - - 15 8 Z 1026,1 15 60 0,0
15.02.2019 16:00:00 11,2 3,1 - - 16 9 Z 1026,1 17 60 0,0
15.02.2019 15:00:00 12,2 4,3 - - 15 8 ZZO 1026,7 19 60 0,0
15.02.2019 14:00:00 12,9 4,9 - - 16 9 Z 1027,1 17 60 0,0
15.02.2019 13:00:00 12,9 6,5 - - 13 7 Z 1027,7 14 60 0,0
15.02.2019 12:00:00 11,7 6,4 - - 15 8 Z 1028,1 13 60 0,0
15.02.2019 11:00:00 9,9 6,3 - - 16 9 ZZO 1028,5 17 60 0,0
15.02.2019 10:00:00 8,1 6,0 - - 13 7 Z 1029,1 10 60 0,0
15.02.2019 09:00:00 5,9 4,5 4,9 5,7 13 7 Z 1029,3 7 60 0,2
15.02.2019 08:00:00 4,4 3,6 - - 13 7 ZZO 1029,5 7 18 0,0
15.02.2019 07:00:00 3,9 3,4 - - 15 8 ZZO 1029,4 5 0 0,0
15.02.2019 06:00:00 3,8 3,4 - - 15 8 ZO 1029,5 2,9 0 0,0
15.02.2019 05:00:00 3,6 3,2 - - 13 7 ZO 1029,5 2,7 0 0,0
15.02.2019 04:00:00 3,5 2,8 - - 15 8 ZO 1029,6 5 0 0,0
15.02.2019 03:00:00 4,2 3,7 - - 11 6 ZZO 1029,9 4,2 0 0,0
15.02.2019 02:00:00 4,3 3,8 - - 15 8 ZO 1030,5 5 0 0,2
15.02.2019 01:00:00 4,4 3,6 - - 15 8 ZZO 1030,9 5 0 0,0
15.02.2019 00:00:00 4,7 3,4 - - 18 10 ZO 1031,0 8 - 0,0
14.02.2019 23:00:00 4,5 3,2 - - 15 8 ZZO 1031,1 10 0 0,0
14.02.2019 22:00:00 4,6 3,5 - - 15 8 ZZO 1031,3 7 0 0,0
14.02.2019 21:00:00 4,5 3,7 - - 16 9 ZO 1031,3 7 0 0,0
14.02.2019 20:00:00 4,8 3,9 - - 11 6 ZO 1031,4 7 0 0,0
14.02.2019 19:00:00 5,1 3,4 - - 11 6 ZO 1031,6 8 0 0,0
14.02.2019 18:00:00 4,9 3,2 - - 11 6 ZO 1031,8 10 0 0,0
14.02.2019 17:00:00 6,4 3,6 - - 15 8 ZO 1031,8 14 36 0,0
14.02.2019 16:00:00 8,3 3,9 - - 16 9 ZO 1031,7 20 60 0,0
14.02.2019 15:00:00 9,7 4,3 - - 16 9 ZO 1032,0 21 60 0,0
14.02.2019 14:00:00 9,8 4,7 - - 16 9 ZZO 1032,5 29 60 0,0
14.02.2019 13:00:00 9,4 3,2 - - 18 10 ZO 1033,4 35 60 0,0
14.02.2019 12:00:00 9,1 4,5 - - 15 8 ZO 1034,1 16 60 0,0
14.02.2019 11:00:00 8,2 4,7 - - 16 9 ZO 1034,3 18 60 0,0
14.02.2019 10:00:00 7,5 5,3 - - 15 8 ZZO 1034,0 13 60 0,0
14.02.2019 09:00:00 5,7 4,8 5,2 5,9 15 8 ZZO 1033,9 7 36 0,0
14.02.2019 08:00:00 2,9 2,5 - - 15 8 ZO 1033,9 2,6 0 0,0
14.02.2019 07:00:00 2,9 2,4 - - 11 6 Z 1033,7 4,8 0 0,0
14.02.2019 06:00:00 2,3 1,8 - - 11 6 ZZO 1033,6 4,0 0 0,0
14.02.2019 05:00:00 3,8 3,4 - - 8 4 ZZO 1033,8 5 0 0,0
14.02.2019 04:00:00 2,8 2,2 - - 11 6 Z 1033,4 3,1 0 0,0
14.02.2019 03:00:00 2,9 1,9 - - 13 7 Z 1033,4 3,6 0 0,0
14.02.2019 02:00:00 3,5 2,7 - - 13 7 Z 1033,6 6 0 0,0
14.02.2019 01:00:00 3,8 2,9 - - 9 5 Z 1033,8 7 0 0,0
14.02.2019 00:00:00 4,0 2,6 - - 18 10 Z 1033,5 7 - 0,0
13.02.2019 23:00:00 4,3 2,8 - - 16 9 Z 1033,4 9 0 0,0
13.02.2019 22:00:00 4,5 2,5 - - 15 8 Z 1033,6 12 0 0,0
13.02.2019 21:00:00 4,7 3,2 - - 16 9 Z 1033,7 9 0 0,0
13.02.2019 20:00:00 5,2 3,7 - - 16 9 Z 1033,8 11 0 0,0
13.02.2019 19:00:00 5,6 3,8 - - 16 9 Z 1033,9 16 0 0,0
13.02.2019 18:00:00 6,1 4,1 - - 16 9 Z 1034,0 15 0 0,0
13.02.2019 17:00:00 7,5 4,3 - - 16 9 ZZW 1033,7 25 42 0,0
13.02.2019 16:00:00 8,9 4,5 - - 28 15 ZZW 1033,3 24 36 0,0
13.02.2019 15:00:00 9,2 5,3 - - 21 11 ZZW 1033,5 28 24 0,0
13.02.2019 14:00:00 9,9 6,0 - - 18 10 ZZW 1033,8 20 60 0,0
13.02.2019 13:00:00 9,5 5,7 - - 21 11 ZZW 1033,9 21 36 0,0
13.02.2019 12:00:00 9,4 5,1 - - 24 13 ZZW 1034,3 30 42 0,0
13.02.2019 11:00:00 8,7 6,1 - - 16 9 Z 1034,9 19 0 0,0
13.02.2019 10:00:00 8,0 6,5 - - 15 8 ZZW 1034,7 14 0 0,0
13.02.2019 09:00:00 6,7 6,0 5,4 5,7 13 7 Z 1034,6 8 0 0,0
13.02.2019 08:00:00 5,1 4,7 - - 9 5 ZZO 1034,7 5 0 0,0
13.02.2019 07:00:00 4,5 4,0 - - 11 6 Z 1034,5 6 0 0,0
13.02.2019 06:00:00 4,9 4,2 - - 9 5 Z 1034,4 8 0 0,0
13.02.2019 05:00:00 5,7 4,8 - - 11 6 ZW 1034,6 9 0 0,0
13.02.2019 04:00:00 6,5 5,7 - - 13 7 ZW 1034,5 9 0 0,0
13.02.2019 03:00:00 6,4 5,8 - - 13 7 ZZW 1034,6 7 0 0,0
13.02.2019 02:00:00 5,8 5,2 - - 13 7 ZZW 1034,7 7 0 0,0
13.02.2019 01:00:00 5,5 4,8 - - 13 7 ZZW 1034,8 7 0 0,0
13.02.2019 00:00:00 5,6 5,1 - - 13 7 Z 1035,0 5 - 0,0
12.02.2019 23:00:00 5,4 4,9 - - 11 6 ZZW 1034,8 6 0 0,0
12.02.2019 22:00:00 5,9 4,9 - - 13 7 ZW 1034,6 8 0 0,0
12.02.2019 21:00:00 7,2 5,8 - - 18 10 ZW 1034,0 13 0 0,0
12.02.2019 20:00:00 7,4 5,8 - - 18 10 ZW 1034,2 16 0 0,0
12.02.2019 19:00:00 7,2 5,3 - - 16 9 ZZW 1034,2 17 0 0,0
12.02.2019 18:00:00 6,8 5,0 - - 13 7 ZZW 1034,1 21 0 0,0

tt = temperatuur
td = dauwpunt
tt -20cm = temperatuur -20cm
tt -100cm = temperatuur -100cm
ff = windsnelheid
dd = windrichting
ppp = luchtdruk
vv = zicht
sd = Zonneschijnduur
rr = neerslag

Weerstations in de omgeving